Temp
24 25 25 24 24 24 24 24 23 23 23 23 23 22 22 22 22 21 21 21 21 20 20 20 20 20 20 20 20 20 20 20 20 20 20 20 19 19 20 20 19 19
24 24 25 24 24 24 24 24 24 23 23 23 23 23 22 22 22 21 21 21 21 20 20 20 20 20 20 20 20 20 20 20 20 20 20 20 20 20 20 20 19 19
24 24 25 25 25 25 24 24 24 23 23 23 23 23 22 22 22 21 21 21 21 20 20 20 20 20 20 20 20 20 20 20 20 20 20 20 20 20 20 19 19 19
24 24 25 25 25 25 25 24 24 23 23 23 23 23 22 22 22 21 21 21 21 21 21 20 20 20 20 20 20 20 20 20 20 20 20 20 20 20 20 20 20 19
24 25 25 25 25 25 24 24 24 24 23 23 23 23 22 22 22 21 21 21 21 21 21 21 20 20 20 20 20 20 20 20 20 20 20 20 20 20 20 20 20 20
25 25 25 26 26 25 24 24 24 24 24 23 23 23 22 22 22 21 21 21 21 21 21 21 20 20 20 20 20 20 20 20 20 20 20 20 20 20 20 20 20 20
25 25 25 26 25 24 23 23 24 24 24 23 23 23 22 22 21 21 21 21 21 21 21 21 21 20 20 20 20 20 20 20 20 20 20 20 20 20 20 20 20 20
24 24 24 24 24 23 22 23 23 23 23 23 23 23 22 22 22 21 21 21 21 21 21 21 21 21 20 20 20 20 20 20 20 20 20 20 20 20 20 20 20 20
23 22 22 22 22 21 22 23 23 23 23 23 23 22 22 22 22 21 21 21 21 21 21 21 21 21 20 20 20 20 20 20 20 20 20 20 20 20 20 20 20 20
22 22 22 22 21 21 22 23 23 23 23 23 23 22 22 22 21 21 21 21 21 21 21 20 20 20 20 20 20 20 20 20 20 20 20 20 20 20 20 20 20 20
23 24 24 22 21 22 22 23 23 23 23 23 23 22 22 21 21 21 21 21 21 21 20 20 20 20 20 20 20 20 20 20 20 20 20 20 20 20 20 21 21 21
24 25 23 22 21 22 22 23 23 23 23 23 22 22 22 21 21 21 21 21 21 21 20 20 21 20 20 20 20 20 20 20 20 20 20 20 20 21 21 21 21 21
24 24 23 23 22 21 21 22 23 23 22 22 22 21 21 21 21 21 21 21 21 21 21 20 21 21 21 20 20 20 20 21 21 21 20 21 21 21 21 21 21 21
22 22 24 23 21 20 21 22 22 22 21 21 21 21 21 22 21 21 21 21 21 21 21 21 21 21 21 21 21 20 21 21 21 21 21 21 21 21 21 21 21 21
21 21 22 22 20 21 21 21 20 19 20 21 21 21 22 22 21 21 21 21 21 21 21 21 21 21 21 21 21 21 21 21 21 21 21 21 21 21 21 21 21 21
21 21 21 20 20 20 20 20 19 19 20 21 22 21 21 21 21 21 21 21 21 21 21 21 21 21 21 21 21 21 21 21 21 21 21 21 21 21 21 21 21 21
21 21 20 20 20 19 19 19 20 20 20 21 21 21 20 20 20 21 21 21 21 21 21 21 21 21 21 21 21 21 21 21 21 21 21 21 21 21 21 21 21 21
21 20 20 19 19 18 18 19 21 21 20 19 19 19 20 20 20 20 21 21 21 21 21 21 21 21 21 21 21 21 21 21 21 21 21 21 21 21 21 21 21 20
20 20 19 18 18 18 19 20 22 21 19 18 18 18 19 20 20 20 20 20 20 21 21 21 21 21 21 21 22 22 21 21 21 21 21 21 21 21 20 20 20 20
20 19 18 18 18 19 19 20 20 19 18 18 18 18 18 19 19 19 20 20 20 20 20 20 20 21 21 21 21 21 21 20 20 20 20 20 20 19 19 19 19 18
19 18 18 18 18 19 19 19 19 18 18 18 18 19 19 19 19 20 20 19 19 19 19 20 21 21 20 20 19 20 19 19 19 19 20 20 20 19 19 18 19 18
19 18 18 18 18 19 19 19 18 18 18 18 18 19 19 19 19 19 18 18 19 19 20 21 21 20 19 19 19 19 19 19 20 20 20 20 20 19 19 19 19 18
19 19 18 18 18 18 18 18 18 17 17 18 18 18 19 18 18 18 17 18 19 19 20 20 20 19 19 19 19 20 19 20 20 20 20 20 20 19 19 19 18 18
19 19 18 18 18 18 18 18 18 18 18 18 18 18 18 18 18 18 18 19 20 20 20 21 21 20 19 19 20 20 20 20 20 20 20 20 19 19 19 18 17 17
19 19 19 19 18 18 18 18 18 18 18 17 18 18 18 18 19 19 19 20 20 20 21 22 21 20 19 20 20 20 21 21 21 21 20 20 19 18 18 17 17 16
20 20 19 19 19 19 19 18 18 18 17 18 18 18 18 19 19 20 20 21 21 21 21 22 21 20 20 20 21 21 21 21 21 21 20 19 19 18 17 16 16 16
Height
805 807 810 812 814 816 818 819 820 821 822 823 824 825 826 827 829 830 832 833 834 836 837 839 840 841 842 842 843 844 845 846 846 847 847 847 847 847 848 847 847 846
802 805 807 810 811 813 815 816 818 818 820 821 822 823 824 825 826 828 830 832 833 834 835 836 838 839 840 841 841 842 843 844 844 845 845 846 846 846 847 847 846 845
799 802 804 806 808 810 812 813 815 816 818 819 820 822 822 823 824 826 828 830 831 832 833 834 836 837 838 839 840 840 841 842 843 843 844 844 845 845 845 845 845 844
796 799 801 804 806 807 809 811 812 814 816 818 819 821 821 822 823 824 826 827 829 830 831 832 833 835 836 837 837 838 839 840 841 841 842 842 842 843 843 843 843 843
793 796 798 801 803 805 806 808 810 812 814 816 818 820 821 822 822 823 825 826 827 828 829 830 831 832 834 835 835 836 837 837 838 839 840 840 840 841 841 841 841 841
790 792 795 798 800 802 805 807 810 812 814 816 818 820 821 822 823 824 824 825 826 827 827 828 829 830 831 832 833 834 835 835 836 837 838 838 838 838 838 839 839 839
786 789 792 795 799 801 805 809 812 814 816 818 819 820 821 822 824 824 825 825 826 826 826 827 827 827 829 830 831 832 833 833 834 835 836 836 836 836 836 836 836 836
784 788 791 795 799 802 807 812 815 817 819 821 821 821 821 822 823 824 825 825 825 825 826 826 826 826 826 827 828 829 830 831 832 832 833 834 834 834 834 834 834 833
784 789 792 796 800 803 806 808 811 814 816 819 821 822 822 822 823 824 825 826 826 826 826 826 826 825 825 825 826 827 828 828 829 830 831 832 832 832 832 831 831 831
782 786 790 793 795 797 799 801 802 806 810 814 817 820 821 822 823 824 826 826 826 826 825 826 825 824 823 823 823 824 825 826 827 827 828 829 830 830 829 829 829 828
776 778 780 784 790 792 793 795 798 800 804 808 812 816 818 820 822 823 824 825 825 825 824 824 824 823 823 822 821 821 822 824 825 825 826 827 827 827 827 826 826 826
766 770 774 779 784 787 788 791 794 797 801 805 809 813 815 817 820 821 822 823 823 823 822 822 822 822 822 821 820 820 820 821 822 823 824 824 824 824 824 824 823 823
760 765 770 772 775 781 787 791 792 794 798 803 808 811 814 816 817 818 819 820 820 820 820 820 819 819 820 820 820 819 819 820 820 821 821 821 821 821 821 821 821 821
759 762 765 767 770 776 784 790 793 794 796 801 807 810 811 811 812 813 814 815 817 817 817 817 817 816 817 818 818 818 817 818 818 819 819 819 819 818 818 818 818 818
758 760 763 765 768 771 777 785 791 793 796 800 805 806 804 803 806 810 811 811 812 814 814 815 814 813 813 814 816 816 815 816 816 817 817 817 816 816 815 815 815 815
755 759 761 763 765 768 773 778 782 788 794 796 797 799 799 800 804 808 809 809 809 810 811 812 811 811 811 812 813 813 814 814 814 815 815 815 814 813 813 812 812 811
754 757 760 762 765 768 772 776 781 788 793 795 795 797 799 801 803 805 805 806 806 807 808 808 808 808 809 809 810 811 812 812 812 812 812 812 812 811 810 809 808 808
753 756 760 764 769 775 781 785 787 789 791 794 795 796 799 802 804 803 803 803 803 803 803 804 805 807 807 807 808 809 810 810 810 810 809 809 808 807 807 806 805 805
753 757 762 767 773 778 781 781 780 781 784 787 788 789 791 795 799 800 800 800 799 798 799 801 803 805 805 805 806 806 807 807 807 807 806 806 805 804 803 803 802 801
752 756 762 767 769 770 770 771 773 776 778 780 781 781 782 784 789 793 794 795 795 795 796 797 799 801 802 803 803 804 804 805 804 804 803 802 802 801 801 800 799 799
750 754 758 761 762 764 765 767 769 770 772 773 775 776 776 778 782 785 787 790 791 791 792 793 794 797 799 800 800 800 801 801 801 800 799 799 798 798 797 797 796 797
747 749 753 756 758 761 762 763 763 765 767 770 772 774 775 777 780 783 785 787 787 788 789 790 791 794 796 797 797 797 797 797 796 796 795 795 795 794 794 794 793 794
743 746 749 753 755 756 758 759 761 763 766 769 772 774 775 778 781 783 785 785 785 786 786 787 789 792 793 794 793 793 793 793 792 791 791 791 791 791 791 791 791 792
741 744 747 749 751 753 755 758 760 762 765 767 769 771 774 777 780 782 782 782 782 783 782 783 786 789 790 791 790 790 790 790 789 788 787 787 788 788 789 789 789 790
739 742 744 746 748 751 754 756 758 760 762 764 767 769 771 774 776 778 778 777 778 779 779 780 783 785 786 786 786 787 787 786 786 785 785 785 785 786 787 787 788 789
737 740 743 745 747 750 753 755 756 758 761 763 765 767 768 770 772 773 773 773 775 775 775 777 779 781 781 782 782 783 783 782 781 781 781 782 783 784 785 786 787 787
Wind_Speed
34 32 30 27 27 25 24 24 23 24 25 26 26 25 23 21 18 18 18 18 17 16 14 11 10 10 10 9 8 8 8 8 8 8 8 9 9 9 9 9 9 9
34 33 30 28 29 27 26 26 26 26 27 27 28 26 24 21 19 19 19 19 19 17 15 13 12 11 10 9 8 8 8 9 9 9 9 9 10 10 11 11 10 10
35 33 31 30 30 29 29 29 27 27 27 28 28 26 23 21 20 20 20 20 19 18 17 14 13 13 11 10 9 9 9 10 10 9 9 9 9 10 11 11 10 10
35 33 32 31 31 31 31 30 29 28 28 28 28 26 24 22 21 21 21 20 20 19 18 16 15 15 14 12 11 10 10 11 11 11 11 11 11 11 11 11 11 10
35 34 32 32 32 32 32 31 30 29 29 28 27 26 24 23 23 22 22 21 21 20 19 17 16 16 15 13 12 11 11 11 11 12 13 12 12 12 11 11 12 12
35 34 34 34 33 33 33 32 30 29 29 27 26 25 24 24 23 23 23 22 21 21 20 19 17 16 15 14 13 12 11 11 11 12 13 12 12 11 11 12 13 14
36 35 35 35 34 34 32 30 29 28 26 25 24 24 24 24 23 22 22 21 21 21 20 19 18 16 15 14 14 13 12 12 12 12 12 13 13 12 12 12 14 15
35 35 34 32 31 30 28 28 27 25 22 22 23 22 22 22 21 21 21 21 21 21 20 20 18 16 15 14 14 13 12 12 12 12 13 14 14 13 13 12 14 15
29 28 26 26 27 26 26 28 27 24 22 21 21 20 20 19 19 19 20 20 21 21 20 19 17 15 15 14 14 13 12 12 12 13 14 14 14 13 13 13 14 14
25 24 24 25 27 28 30 32 29 25 23 21 21 20 18 16 16 18 20 20 21 21 20 19 18 16 16 15 14 14 13 13 13 14 15 15 15 14 14 14 13 13
29 31 31 29 30 33 35 34 31 28 26 22 21 19 14 13 17 19 20 21 22 22 21 20 19 17 17 16 15 13 13 14 14 15 15 15 16 16 15 14 14 14
37 38 34 31 33 35 35 35 32 29 26 22 20 17 13 14 18 21 21 22 24 24 23 21 19 17 17 17 15 13 13 14 15 15 16 16 17 16 16 16 16 16
39 37 36 37 37 34 31 31 31 29 26 22 19 15 13 15 19 22 23 24 25 26 25 23 19 18 18 18 17 15 14 15 17 17 17 18 17 17 17 17 18 19
33 35 39 39 35 33 30 29 29 28 25 20 16 16 17 19 22 25 26 26 27 28 26 24 21 20 20 20 19 17 16 17 18 18 19 19 19 18 17 18 19 21
27 31 36 35 33 33 31 29 27 23 19 17 19 24 27 27 26 26 26 28 29 29 27 25 23 22 21 20 19 18 17 18 19 19 20 20 20 19 19 19 20 21
27 30 33 33 35 35 35 35 31 24 25 30 30 31 34 31 27 25 26 29 30 29 28 27 25 23 21 19 19 18 18 18 19 19 20 21 22 22 21 22 22 22
25 28 31 33 35 35 34 34 30 24 31 40 36 32 31 29 27 28 29 31 30 29 28 26 24 23 20 19 20 19 19 19 20 21 22 23 24 24 24 25 24 25
24 27 29 29 28 26 25 26 25 26 33 36 33 30 28 28 30 31 31 33 31 28 26 24 23 21 19 19 19 20 21 21 21 22 22 24 25 25 26 26 26 27
25 24 23 23 24 24 26 30 32 33 33 33 31 30 30 31 31 31 32 33 31 27 24 21 20 20 20 20 20 20 21 22 22 23 23 25 27 27 27 27 27 27
25 23 23 26 28 31 35 37 36 34 33 33 32 30 31 32 30 30 30 30 27 23 19 17 16 19 22 23 21 21 20 21 21 21 21 23 25 25 26 26 25 25
27 29 31 31 33 35 36 34 34 34 33 33 33 32 31 30 29 30 29 26 22 17 15 14 14 17 21 22 21 20 19 19 17 15 15 18 20 22 23 23 22 22
30 35 36 34 34 37 36 33 32 31 31 32 34 33 29 26 25 24 23 19 15 12 12 14 13 15 17 18 17 17 16 14 12 11 13 17 20 22 23 23 21 19
31 35 36 36 36 35 31 28 27 27 29 31 31 28 24 21 20 19 17 14 10 8 9 9 10 13 15 15 14 14 13 12 13 14 15 17 20 22 23 23 20 15
30 33 34 35 34 29 25 25 25 27 30 32 30 24 19 17 17 16 14 10 7 6 6 7 11 15 16 15 14 14 13 14 16 18 18 19 20 21 21 20 16 13
30 31 32 32 30 26 24 25 26 25 25 24 20 17 15 14 14 12 10 8 7 7 7 8 13 19 21 18 16 16 16 16 16 17 19 21 20 19 19 17 13 11
30 30 30 29 29 27 23 21 21 18 16 14 14 13 13 13 12 11 9 8 9 10 10 12 17 22 21 17 16 18 19 19 17 17 19 18 17 16 15 12 9 8
Wind_Direction
227 227 228 229 230 233 234 232 228 221 216 212 208 206 209 211 209 206 206 208 206 206 209 208 208 213 214 213 214 218 228 237 244 252 256 255 253 250 250 252 251 250
226 225 227 229 230 233 233 232 230 225 220 216 213 212 213 212 207 204 207 209 208 208 207 204 205 208 209 213 217 225 239 250 256 263 269 269 267 262 261 261 260 260
224 224 225 227 230 232 231 230 230 226 222 219 216 215 215 212 208 206 208 210 210 207 207 209 211 210 211 216 224 232 245 255 258 262 269 274 277 277 273 270 271 272
223 223 225 228 231 233 231 229 227 223 220 218 217 217 217 213 210 208 209 210 209 209 210 213 214 215 217 222 228 236 247 255 257 261 266 270 273 277 277 276 280 284
224 224 226 229 232 233 230 227 224 220 217 217 218 220 219 214 211 210 210 211 211 212 213 213 214 216 219 225 232 239 245 251 255 259 263 266 268 271 276 281 284 287
224 226 228 230 232 232 228 225 224 220 217 217 219 221 219 216 214 213 213 214 214 214 213 213 214 215 220 228 235 241 245 248 251 256 261 264 265 269 276 281 283 284
224 226 227 229 231 230 226 223 223 219 219 220 220 220 219 217 217 217 217 218 218 216 216 217 217 218 224 231 239 246 251 251 250 254 259 262 264 268 273 276 279 282
221 224 224 224 225 223 219 219 221 221 223 225 224 223 220 218 219 220 221 222 221 220 220 221 222 224 228 234 241 247 249 248 249 252 256 260 265 270 271 273 278 283
212 216 217 217 217 213 208 211 216 219 220 222 226 227 224 221 224 227 228 227 226 225 225 225 228 230 233 237 242 243 244 245 249 252 256 261 266 271 273 275 281 283
196 207 214 213 210 208 208 209 212 213 213 216 222 224 224 228 233 234 234 233 232 231 229 229 233 235 237 239 239 240 244 248 251 252 257 265 272 274 276 278 282 281
199 213 215 209 208 210 211 210 209 209 207 208 214 219 228 240 240 236 236 237 237 235 232 233 236 240 242 241 239 240 245 250 253 255 260 268 274 276 277 280 281 280
209 213 207 204 209 211 209 207 206 205 201 202 211 220 231 241 238 236 236 238 239 238 236 235 237 241 244 244 243 243 247 253 257 259 264 269 273 275 276 278 278 277
207 203 202 208 210 204 202 206 205 202 198 201 211 219 231 240 239 237 237 238 240 241 239 236 235 238 244 248 251 250 252 256 258 261 265 268 271 274 274 275 274 273
200 197 204 209 202 194 198 205 204 197 190 194 207 218 232 241 238 237 236 235 238 241 241 237 233 235 242 248 253 254 253 254 257 260 265 269 272 274 274 274 273 272
194 195 200 201 194 190 192 195 197 191 182 191 211 222 231 233 230 233 236 234 235 240 240 237 234 235 240 246 252 254 252 254 258 261 267 273 276 278 278 278 278 277
194 194 194 194 191 187 184 186 188 187 193 204 214 224 229 228 223 230 238 236 234 237 239 237 236 237 241 245 250 252 253 256 260 264 271 278 282 283 283 283 284 284
193 193 194 193 190 184 180 178 180 192 206 210 217 227 229 228 224 228 236 236 232 234 237 236 238 241 245 249 251 252 254 257 261 268 275 281 284 285 285 286 288 287
189 192 192 186 177 169 165 168 183 208 215 212 219 227 227 230 231 230 233 233 229 231 234 235 240 246 252 254 255 256 257 259 264 271 278 283 285 284 285 287 288 287
184 184 175 162 158 167 181 193 202 210 209 208 214 217 216 221 228 229 231 231 228 227 229 233 242 255 261 263 262 263 262 261 264 271 277 281 284 285 285 286 286 287
174 166 149 149 165 185 198 204 204 202 203 206 210 210 208 210 217 222 225 227 227 226 227 234 250 264 270 271 267 264 264 263 267 274 281 286 290 291 289 289 290 291
159 155 153 161 178 189 196 200 200 200 204 207 207 207 205 206 213 217 217 217 220 222 226 237 253 269 274 272 268 266 267 267 272 285 297 302 307 307 303 300 299 296
158 160 164 171 181 188 195 202 204 203 204 205 206 208 207 210 215 216 213 212 212 215 223 233 253 272 273 267 264 265 264 263 271 293 305 308 312 314 312 307 299 290
167 169 170 174 181 189 198 206 206 203 202 203 205 206 204 206 211 211 209 207 209 220 227 238 265 272 263 255 253 252 251 257 270 280 285 291 300 306 306 299 291 280
176 176 176 179 185 190 194 197 198 200 203 205 203 200 194 194 199 203 205 207 218 233 232 244 258 252 242 240 242 245 255 268 276 278 276 279 290 298 296 287 281 274
182 183 186 187 187 183 180 185 189 193 197 197 192 186 183 186 191 197 204 212 221 223 216 227 238 235 231 234 241 250 260 267 272 273 270 273 284 292 285 277 274 269
187 190 190 185 180 177 177 181 184 184 183 181 178 178 180 184 189 192 199 211 220 217 209 213 222 225 229 237 247 252 254 254 256 256 257 265 280 282 273 269 267 258